Regional Weather Roundup
Issued by NWS

Home | Current Version | Previous Version | Text Only | Print | Product List | Glossary Off
Versions: 1 2 3 4 5 6 7 8 9 10 11 12 13 14 15 16 17 18 19 20 21 22 23 24 25 26 27 28 29 30 31 32 33 34 35 36 37 38 39 40 41 42 43 44 45 46 47 48 49 50

000
ASUS43 KMKX 020210
RWRWI

WISCONSIN REGIONAL WEATHER ROUNDUP
NATIONAL WEATHER SERVICE MILWAUKEE/SULLIVAN WI
800 PM CST SUN MAR 01 2015

NOTE: "FAIR" INDICATES FEW OR NO CLOUDS BELOW 12,000 FEET WITH NO
SIGNIFICANT WEATHER AND/OR OBSTRUCTIONS TO VISIBILITY.

WIZ001-002-006>008-014>016-023>028-020300-
NORTHWEST WISCONSIN

CITY           SKY/WX    TMP DP  RH WIND       PRES   REMARKS
SUPERIOR ARPT  CLEAR     21  13  69 W10       30.21R WCI  10
ASHLAND        CLOUDY    22   7  52 W8        30.17R WCI  12
HAYWARD        MOCLDY    20   6  55 SW6       30.18R WCI  12
SIREN          MOCLDY    22  11  63 W9        30.24R WCI  11
CUMBERLAND     CLOUDY    21   9  58 W10       30.21R WCI  10
RICE LAKE      MOCLDY    18   9  66 W3        30.23R
CHETEK         PTCLDY    20  11  67 W6        30.22R WCI  13
LADYSMITH      PTCLDY    19   6  57 W8        30.20R WCI   9
EAU CLAIRE     CLOUDY    19   7  59 W5        30.24R WCI  12
MENOMONIE      CLEAR     21   9  59 SW3       30.25R
NEW RICHMOND   PTCLDY    21  10  63 W8        30.26R WCI  11
OSCEOLA        MOCLDY    24  11  59 W8        30.29R WCI  14
$$

WIZ003>005-009-010-017-018-020300-
NORTH CENTRAL WISCONSIN

CITY           SKY/WX    TMP DP  RH WIND       PRES   REMARKS
MANITOWISH WTR CLOUDY    17   2  52 W8        30.09S WCI   6
ARBOR VITAE    FAIR      19   6  55 W7        30.10R WCI  10
WOODRUFF       FAIR      19   6  55 W7        30.10R WCI  10
RHINELANDER    CLEAR     14   3  61 W14       30.10R WCI  -1
EAGLE RIVER    CLEAR     18   0  46 W9G16     30.07S WCI   6
LAND O LAKES   PTCLDY    16   4  58 W7        30.07S WCI   6
PHILLIPS       CLOUDY    17   4  57 W3        30.14R
TOMAHAWK       CLEAR     16   3  57 W3        30.14R
MEDFORD        PTCLDY    17   4  58 W8        30.17R WCI   6
MERRILL        CLEAR     17   4  56 W8        30.16R WCI   7
$$

WIZ029-030-035-036-043>047-020300-
CENTRAL WISCONSIN

CITY           SKY/WX    TMP DP  RH WIND       PRES   REMARKS
WAUSAU         CLEAR     17   5  59 W12       30.16R WCI   4
MOSINEE        CLEAR     16   7  67 W10       30.19R WCI   3
MARSHFIELD     CLEAR     17   5  59 W9        30.20R WCI   6
STEVENS POINT  CLEAR     18   5  57 W8        30.20R WCI   7
WAUPACA        CLEAR     21   8  57 W8        30.21R WCI  11
WAUTOMA        CLEAR     20   5  52 W10       30.23R WCI   9
WISC RAPIDS    CLEAR     19   4  51 W9        30.24R WCI   8
CAMP DOUGLAS   CLEAR     17   8  65 SW12      30.26R WCI   5
$$

WIZ011>013-019>022-031-037>040-048>050-020300-
NORTHEAST WISCONSIN

CITY           SKY/WX    TMP DP  RH WIND       PRES   REMARKS
ANTIGO         CLEAR     13   5  70 W7        30.12R WCI   3
SHAWANO        CLEAR     20  10  66 SW7       30.18R WCI  11
OCONTO         CLEAR     17   9  73 W5        30.18R WCI   9
STURGEON BAY   CLEAR     19   9  63 W13       30.18R WCI   7
GREEN BAY      CLEAR     19  12  74 SW6       30.19R WCI  11
MANITOWOC      CLEAR     21  13  71 W12       30.19R WCI   9
APPLETON       PTCLDY   N/A N/A N/A W9        30.19R
CLINTONVILLE   CLEAR     19   9  63 W7        30.19R WCI  10
OSHKOSH        CLEAR     21  10  62 W8        30.20R WCI  11
$$

WIZ032>034-041-042-053>061-020300-
SOUTHWEST WISCONSIN

CITY           SKY/WX    TMP DP  RH WIND       PRES   REMARKS
LA CROSSE      CLEAR     19   7  59 SW5       30.31R WCI  12
SPARTA         CLEAR     18   7  63 W6        30.29R WCI   9
VIROQUA        CLEAR     15   7  69 W6        30.27R WCI   7
BOSCOBEL       CLEAR     19   6  57 SW7       30.34R WCI  10
PRAIRIE DU CHI CLEAR     17   7  64 CALM      30.35R
PLATTEVILLE    CLEAR     16   8  70 W10       30.32R WCI   4
$$

WIZ056-057-062-063-064-067-068-020300-
SOUTH CENTRAL WISCONSIN

CITY           SKY/WX    TMP DP  RH WIND       PRES   REMARKS
REEDSBURG      CLEAR     19   7  58 W9        30.27R WCI   8
BARABOO/DELLS  CLEAR     19   6  57 W7        30.26R WCI   9
LONE ROCK      CLEAR     21   6  52 W14       30.31R WCI   8
MINERAL POINT  CLEAR     19   9  63 W12       30.28R WCI   7
MADISON        CLEAR     22   8  55 W10G18    30.27R WCI  11
MIDDLETON      CLEAR     22   8  53 W15G25    30.27R WCI   9
WATERTOWN      CLEAR     22  13  70 W10       30.24R WCI  11
MONROE         CLEAR     21  10  63 W17G24    30.28R WCI   7
JANESVILLE     CLEAR     23  12  63 W17       30.28R WCI   9
$$

WIZ051-052-058>065-066-070>072-020300-
SOUTHEAST WISCONSIN

CITY           SKY/WX    TMP DP  RH WIND       PRES   REMARKS
MILWAUKEE      CLEAR     23  13  65 SW10      30.23R WCI  12
WAUKESHA       PTCLDY    21  14  73 SW12      30.24R WCI   9
MILWAUKEE/TIMM CLEAR     23  14  68 W10       30.22S WCI  12
RACINE         CLEAR     21  13  71 SW10      30.24F WCI  10
BURLINGTON     CLEAR     17  13  82 SW10      30.25R WCI   5
KENOSHA        CLEAR     20  13  74 SW14      30.24R WCI   7
FOND DU LAC    CLEAR     21  11  65 W7        30.21R WCI  12
SHEBOYGAN      CLEAR     22  12  65 W12       30.20R WCI  10
WEST BEND      PTCLDY    25  14  63 W12G18    30.20R WCI  14
JUNEAU         CLEAR     22  11  62 W10       30.24R WCI  11
$$

LSZ147-162-020300-
LAKE SUPERIOR

STATION/POSITION TIME  TEMP    WIND        PRES    WAVE
                       AIR SEA DIR/SP/G            HT/PER
                 (UTC) (F)     (DEG/KT/KT) (MB)    (FT/S)
DEVILS ISLAND    0200   23     290/ 21/ 24 1022.3R
PORT WING        0123   25     280/ 16/ 25 1021.7R
SAXON HARBOR     0100   24     250/  5/ 11 1021.0R
$$

LMZ867-665-643>646-020300-
LAKE MICHIGAN

STATION/POSITION TIME  TEMP    WIND        PRES    WAVE
                       AIR SEA DIR/SP/G            HT/PER
                 (UTC) (F)     (DEG/KT/KT) (MB)    (FT/S)
NORTHPORT PIER   0202   21     260/  6/ 16 1020.7R
SISTER BAY       0043   21     290/ 14/ 17   N/A
KEWAUNEE LAKESHO 0100   23     280/ 12/ 17 1020.6R
SHEBOYGAN LAKESH 0200   24     280/ 11/ 12 1024.2R
PORT WASHINGTON  0100   25     250/  4/  8 1023.4R
MILWAUKEE LAKESH 0100   26     250/ 12/ 16   N/A
KENOSHA   LAKESH 0200   22     230/ 13/ 16 1024.4R
$$

TC  - TEMPERATURE IN CELSIUS
VSB - VISIBILITY IN STATUTE MILES
WCI - WIND CHILL INDEX
HX  - HEAT INDEX




USA.gov is the U.S. government's official web portal to all federal, state and local government web resources and services.